Flag for Kazakhstan Weather past 2 weeks in Shymkent, Kazakhstan

Now
66 °F

Sunny.


Feels Like: 66 °F
Forecast: 58 / 71 °F
Wind: 6 mph from Southeast

Location: Shymkent Airport

Current Time: Sep 2, 2015 at 7:19:49 AM

Latest Report: Sep 2, 2015 at 7:00 AM


Visibility: 10 mi

Pressure: 29.80 "Hg (28.09 "Hg at 506m altitude)

Humidity: 35%

Dew point: 37 °F

Location of ShymkentLocation

Historic Weather in Shymkent — Graph

°F

Shymkent temperature yesterday

Maximum temperature yesterday: 93 °F (at 2:00 PM)
Minimum temperature yesterday: 63 °F (at 4:30 AM)
Average temperature yesterday: 78 °F

Past Weeks' High & Low Weather Summary

 TemperatureHumidityPressure
High106 °F (Aug 19, 3:30 PM)100% (Aug 25, 11:00 PM)30.09 "Hg (Aug 25, 11:00 PM)
Low55 °F (Aug 23, 6:30 AM)7% (Aug 18, 4:00 PM)29.68 "Hg (Aug 22, 4:00 AM)
Average75 °F36%29.90 "Hg
* Reported Aug 18 6:00 AM — Sep 2 6:00 AM, Shymkent, Weather by CustomWeather, © 2015

Note: Actual official high and low records may vary slightly from our data, if they occured in-between our weather recording intervals... More about our weather records

Advertising

Shymkent weather history for previous 24 hours

 ConditionsComfort  
Time TempWeatherWind HumidityBarometerVisibility
6:00 AM
Wed, Sep 2
64 °FClear.10 mph37%29.80 "Hg10 mi
5:30 AM64 °FClear.8 mph37%29.80 "Hg10 mi
5:00 AM64 °FClear.8 mph37%29.80 "Hg10 mi
4:30 AM61 °FClear.8 mph45%29.80 "Hg10 mi
3:30 AM63 °FClear.8 mph39%29.80 "Hg10 mi
3:00 AM64 °FClear.3 mph34%29.83 "Hg10 mi
2:30 AM63 °FClear.No wind37%29.83 "Hg10 mi
2:00 AM66 °FClear.6 mph35%29.83 "Hg10 mi
1:30 AM66 °FClear.8 mph35%29.83 "Hg10 mi
1:00 AM66 °FClear.8 mph35%29.83 "Hg10 mi
12:30 AM70 °FClear.6 mph31%29.86 "Hg10 mi
12:00 AM70 °FClear.6 mph29%29.86 "Hg10 mi
11:30 PM
Tue, Sep 1
70 °FClear.6 mph29%29.86 "Hg10 mi
11:00 PM70 °FClear.8 mph29%29.86 "Hg10 mi
10:30 PM70 °FClear.8 mph31%29.86 "Hg4 mi
10:00 PM72 °FClear.8 mph29%29.86 "Hg4 mi
9:30 PM70 °FClear.6 mph31%29.86 "Hg10 mi
9:00 PM72 °FClear.3 mph27%29.86 "Hg10 mi
8:30 PM75 °FClear.1 mph22%29.86 "Hg10 mi
8:00 PM79 °FClear.1 mph20%29.86 "Hg10 mi
7:30 PM82 °FSunny.3 mph17%29.86 "Hg10 mi
7:00 PM82 °FSunny.8 mph16%29.86 "Hg10 mi
6:30 PM86 °FSunny.8 mph13%29.86 "Hg10 mi
6:00 PM84 °FSunny.10 mph15%29.89 "Hg10 mi
5:30 PM88 °FSunny.8 mph11%29.86 "Hg10 mi
5:00 PM91 °FSunny.6 mph9%29.89 "Hg10 mi
4:30 PM91 °FSunny.8 mph9%29.89 "Hg10 mi
4:00 PM91 °FSunny.13 mph10%29.89 "Hg10 mi
3:30 PM91 °FSunny.6 mph9%29.89 "Hg10 mi
3:00 PM93 °FSunny.6 mph10%29.89 "Hg10 mi
2:30 PM93 °FSunny.6 mph10%29.92 "Hg10 mi
2:00 PM93 °FSunny.10 mph9%29.92 "Hg10 mi
1:30 PM91 °FSunny.10 mph10%29.92 "Hg10 mi
1:00 PM91 °FSunny.10 mph9%29.92 "Hg10 mi
12:30 PM91 °FSunny.6 mph10%29.92 "Hg10 mi
12:00 PM91 °FSunny.6 mph11%29.95 "Hg10 mi
11:30 AM91 °FSunny.6 mph12%29.95 "Hg10 mi
11:00 AM88 °FSunny.6 mph13%29.95 "Hg10 mi
10:30 AM86 °FSunny.6 mph14%29.95 "Hg10 mi
9:30 AM84 °FSunny.13 mph18%29.92 "Hg10 mi
8:30 AM77 °FSunny.10 mph26%29.92 "Hg10 mi
8:00 AM70 °FSunny.10 mph38%29.92 "Hg10 mi
7:30 AM66 °FSunny.6 mph40%29.92 "Hg10 mi
7:00 AM66 °FSunny.8 mph37%29.92 "Hg10 mi
Weather by CustomWeather, © 2015

See weather overviewHow to use our weather pages